Погода в Монтане

Болгария     43°24′30″N   23°13′34″E
темп.,
°C
ветер,
м/с
пор.,
м/с
влажн.,
%
обл.,
%
осадки,
мм/ч
давл.,
гПа
погр.,
м
13 апреля, вт
вт1300:00+12вюв117494 0.0 101713
03:00+11ссз1175100 0.0 101710
06:00+10сз3478100 0.0 101757
09:00+10сз2485100 0.8 1017140
12:00+11вюв1194100 3.5 1017191
15:00+11вюв1195100 7.0 1016167
18:00+10ю1297100 2.8 1014125
21:00+10з1297100 11.8 101456
14 апреля, ср
ср1400:00+9ссз4895100 0.6 1014405
03:00+7сз4889100 0.6 1014332
06:00+5сз61090100 0.1 1014385
09:00+6сз6981100 0.1 1015422
12:00+9сз9115928 0.0 10161176
15:00+9сз111356100 0.0 10161245
18:00+8сз913615 0.0 10161212
21:00+5зсз713638 0.0 1018716
15 апреля, чт
чт1500:00+4зсз49695 0.0 1019289
03:00+3з37735 0.0 1019147
06:00+3з49715 0.0 1019303
09:00+7з596097 0.0 1019997
12:00+9сз810478 0.0 10191644
15:00+10сз10114810 0.0 10191580
18:00+9сз811544 0.0 10181688
21:00+5зсз410620 0.0 1020251
16 апреля, пт
пт1600:00+4зюз34640 0.0 102066
03:00+3зюз36670 0.0 102098
06:00+3зюз36690 0.0 1020108
09:00+7з69580 0.0 10201234
12:00+10зсз79435 0.0 10201782
15:00+12сз910405 0.0 10181792
18:00+11сз810493 0.0 10181390
21:00+7сз511570 0.0 1019241
17 апреля, сб
сб1700:00+5зюз336142 0.0 102025
03:00+5ююз2258100 0.0 101918
06:00+4юз1160100 0.0 101910
09:00+7в115899 0.0 1019215
12:00+11всв224930 0.0 10181167
15:00+13в344875 0.0 10161409
18:00+13в455199 0.0 10151597
21:00+11в1162100 0.0 101615